This is the latest recevied weather packets stored in our database for station/object IU2EVW-13. If no packets are shown the sender has not sent any weather packets the latest 1 day(s).
| Time | Temp. | Humidity | Pressure | Rain* | Wind** | Luminosity | Snow |
|---|---|---|---|---|---|---|---|
| 1777731609 | 22.78° C | 25% | 1022.9 hPa | - | - | - | - |
| 1777730407 | 22.22° C | 29% | 1023.3 hPa | - | - | - | - |
| 1777729206 | 22.78° C | 26% | 1023.6 hPa | - | - | - | - |
| 1777727999 | 21.67° C | 27% | 1023.9 hPa | - | - | - | - |
| 1777726797 | 20.56° C | 28% | 1024.3 hPa | - | - | - | - |
| 1777725596 | 20.56° C | 30% | 1024.5 hPa | - | - | - | - |
| 1777724395 | 19.44° C | 35% | 1024.8 hPa | - | - | - | - |
| 1777723192 | 18.89° C | 36% | 1025 hPa | - | - | - | - |
| 1777721987 | 17.78° C | 40% | 1025.4 hPa | - | - | - | - |
| 1777720786 | 17.78° C | 36% | 1025.8 hPa | - | - | - | - |
| 1777719584 | 17.78° C | 41% | 1026.1 hPa | - | - | - | - |
| 1777718383 | 16.67° C | 40% | 1026.4 hPa | - | - | - | - |
| 1777717182 | 16.11° C | 45% | 1026.7 hPa | - | - | - | - |
| 1777715980 | 15.56° C | 45% | 1027 hPa | - | - | - | - |
| 1777714779 | 14.44° C | 47% | 1027.4 hPa | - | - | - | - |
| 1777713577 | 13.89° C | 48% | 1027.6 hPa | - | - | - | - |
| 1777712376 | 13.33° C | 53% | 1027.9 hPa | - | - | - | - |
| 1777711175 | 12.78° C | 55% | 1028 hPa | - | - | - | - |
| 1777709973 | 11.67° C | 57% | 1028.2 hPa | - | - | - | - |
| 1777708772 | 11.11° C | 60% | 1028.4 hPa | - | - | - | - |
| 1777707571 | 11.11° C | 60% | 1028.6 hPa | - | - | - | - |
* Rain since midnight (hover to see other rain measurements)
** Current wind speed in m/s (hover to see current wind gust speed)